{"data":{"norad_id":40699,"epoch":"2026-09-20T04:18:33.645312Z","epoch_age_seconds":69005,"freshness":"FRESH","line1":"1 40699U 15029A   26263.17955608  .00000039  00000+0  19368-4 0  9997","line2":"2 40699  98.0390 300.3726 0006294 212.4109 147.6703 14.54411498596694","mean_motion":14.54411498,"eccentricity":0.0006294,"inclination_deg":98.039,"raan_deg":300.3726,"arg_perigee_deg":212.4109,"mean_anomaly_deg":147.6703,"bstar":1.9368e-5,"rev_number":59669,"period_min":99.009118257122,"perigee_km":706.81443231655,"apogee_km":715.7385860419,"semimajor_km":7089.4135091792,"source":"CELESTRAK","updated_at":"2026-09-20T09:00:14.070735Z"}}